sat.trackr.live / text

‹ back to catalog

STARLINK-30915

NORAD 58380 · 2023-178G

PAYLOAD ACTIVE UNKNOWN

§ Identity

Operator
Country
US
Launch date
2023-11-20
Launch site
AFWTR
Launch vehicle
Mass (kg)
RCS (m²)

Purposes: comms

External: N2YO · Heavens-Above · Gunter

§ Orbital elements

Epoch: 2026-05-24T16:46:19.255008Z

Period
94.11 min
Inclination
53.1597°
Eccentricity
0.0001298
Mean motion
15.30191689 rev/d
Perigee alt
474.4 km
Apogee alt
476.1 km
Semi-major
6,853.4 km
B*
4.1873e-5
RAAN
278.2847°
Arg perigee
81.6367°
Mean anomaly
278.4780°
Rev number
14,275

§ Raw data

STARLINK-309151 58380U 23178G   26144.69883397  .00000881  00000+0  41873-4 0  99982 58380  53.1597 278.2847 0001298  81.6367 278.4780 15.30191689142753

JSON: /api/v1/satellites/58380 · /tle

For live sub-satellite position, see the globe view (requires WebGL).

§ Visibility from observer

Set your observer location to see the next 7 days of passes ≥ 10°. The values pass through the URL so the page stays shareable.

No JS? Fill the form by hand. The geolocation button needs JavaScript.